Year,Month,Day,Hour,Minute,Value (Times are PST for temperature in C)
2012,10,03,00,00,8.40
2012,10,03,00,01,8.40
2012,10,03,00,02,8.40
2012,10,03,00,03,8.40
2012,10,03,00,04,8.30
2012,10,03,00,05,8.30
2012,10,03,00,06,8.30
2012,10,03,00,07,8.30
2012,10,03,00,08,8.30
2012,10,03,00,09,8.20
2012,10,03,00,10,8.20
2012,10,03,00,11,8.20
2012,10,03,00,12,8.10
2012,10,03,00,13,8.10
2012,10,03,00,14,8.00
2012,10,03,00,15,8.00
2012,10,03,00,16,7.90
2012,10,03,00,17,7.90
2012,10,03,00,18,7.90
2012,10,03,00,19,7.80
2012,10,03,00,20,7.80
2012,10,03,00,21,7.80
2012,10,03,00,22,7.80
2012,10,03,00,23,7.80
2012,10,03,00,24,7.80
2012,10,03,00,25,7.80
2012,10,03,00,26,7.70
2012,10,03,00,27,7.70
2012,10,03,00,28,7.70
2012,10,03,00,29,7.60
2012,10,03,00,30,7.60
2012,10,03,00,31,7.60
2012,10,03,00,32,7.50
2012,10,03,00,33,7.50
2012,10,03,00,34,7.50
2012,10,03,00,35,7.40
2012,10,03,00,36,7.40
2012,10,03,00,37,7.40
2012,10,03,00,38,7.40
2012,10,03,00,39,7.40
2012,10,03,00,40,7.40
2012,10,03,00,41,7.40
2012,10,03,00,42,7.40
2012,10,03,00,43,7.40
2012,10,03,00,44,7.40
2012,10,03,00,45,7.40
2012,10,03,00,46,7.40
2012,10,03,00,47,7.30
2012,10,03,00,48,7.30
2012,10,03,00,49,7.30
2012,10,03,00,50,7.30
2012,10,03,00,51,7.30
2012,10,03,00,52,7.30
2012,10,03,00,53,7.30
2012,10,03,00,54,7.30
2012,10,03,00,55,7.30
2012,10,03,00,56,7.30
2012,10,03,00,57,7.30
2012,10,03,00,58,7.20
2012,10,03,00,59,7.20
2012,10,03,01,00,7.20
2012,10,03,01,01,7.20
2012,10,03,01,02,7.20
2012,10,03,01,03,7.20
2012,10,03,01,04,7.20
2012,10,03,01,05,7.20
2012,10,03,01,06,7.10
2012,10,03,01,07,7.10
2012,10,03,01,08,7.10
2012,10,03,01,09,7.10
2012,10,03,01,10,7.10
2012,10,03,01,11,7.00
2012,10,03,01,12,7.00
2012,10,03,01,13,7.00
2012,10,03,01,14,7.00
2012,10,03,01,15,7.00
2012,10,03,01,16,7.00
2012,10,03,01,17,7.00
2012,10,03,01,18,7.00
2012,10,03,01,19,7.00
2012,10,03,01,20,7.00
2012,10,03,01,21,7.00
2012,10,03,01,22,6.90
2012,10,03,01,23,6.90
2012,10,03,01,24,6.90
2012,10,03,01,25,6.90
2012,10,03,01,26,6.90
2012,10,03,01,27,6.90
2012,10,03,01,28,6.80
2012,10,03,01,29,6.80
2012,10,03,01,30,6.80
2012,10,03,01,31,6.80
2012,10,03,01,32,6.80
2012,10,03,01,33,6.80
2012,10,03,01,34,6.80
2012,10,03,01,35,6.80
2012,10,03,01,36,6.80
2012,10,03,01,37,6.80
2012,10,03,01,38,6.70
2012,10,03,01,39,6.70
2012,10,03,01,40,6.70
2012,10,03,01,41,6.70
2012,10,03,01,42,6.70
2012,10,03,01,43,6.70
2012,10,03,01,44,6.60
2012,10,03,01,45,6.60
2012,10,03,01,46,6.60
2012,10,03,01,47,6.60
2012,10,03,01,48,6.60
2012,10,03,01,49,6.60
2012,10,03,01,50,6.60
2012,10,03,01,51,6.60
2012,10,03,01,52,6.60
2012,10,03,01,53,6.60
2012,10,03,01,54,6.50
2012,10,03,01,55,6.50
2012,10,03,01,56,6.50
2012,10,03,01,57,6.40
2012,10,03,01,58,6.40
2012,10,03,01,59,6.40
2012,10,03,02,00,6.40
2012,10,03,02,01,6.40
2012,10,03,02,02,6.40
2012,10,03,02,03,6.30
2012,10,03,02,04,6.30
2012,10,03,02,05,6.30
2012,10,03,02,06,6.30
2012,10,03,02,07,6.30
2012,10,03,02,08,6.20
2012,10,03,02,09,6.20
2012,10,03,02,10,6.20
2012,10,03,02,11,6.20
2012,10,03,02,12,6.10
2012,10,03,02,13,6.10
2012,10,03,02,14,6.10
2012,10,03,02,15,6.10
2012,10,03,02,16,6.10
2012,10,03,02,17,6.00
2012,10,03,02,18,6.00
2012,10,03,02,19,6.00
2012,10,03,02,20,6.00
2012,10,03,02,21,5.90
2012,10,03,02,22,5.90
2012,10,03,02,23,5.90
2012,10,03,02,24,5.90
2012,10,03,02,25,5.90
2012,10,03,02,26,5.80
2012,10,03,02,27,5.80
2012,10,03,02,28,5.80
2012,10,03,02,29,5.80
2012,10,03,02,30,5.80
2012,10,03,02,31,5.80
2012,10,03,02,32,5.80
2012,10,03,02,33,5.80
2012,10,03,02,34,5.70
2012,10,03,02,35,5.70
2012,10,03,02,36,5.70
2012,10,03,02,37,5.70
2012,10,03,02,38,5.70
2012,10,03,02,39,5.70
2012,10,03,02,40,5.60
2012,10,03,02,41,5.60
2012,10,03,02,42,5.60
2012,10,03,02,43,5.60
2012,10,03,02,44,5.60
2012,10,03,02,45,5.50
2012,10,03,02,46,5.50
2012,10,03,02,47,5.50
2012,10,03,02,48,5.50
2012,10,03,02,49,5.40
2012,10,03,02,50,5.40
2012,10,03,02,51,5.40
2012,10,03,02,52,5.40
2012,10,03,02,53,5.40
2012,10,03,02,54,5.30
2012,10,03,02,55,5.30
2012,10,03,02,56,5.30
2012,10,03,02,57,5.30
2012,10,03,02,58,5.30
2012,10,03,02,59,5.20
2012,10,03,03,00,5.20
2012,10,03,03,01,5.20
2012,10,03,03,02,5.20
2012,10,03,03,03,5.20
2012,10,03,03,04,5.20
2012,10,03,03,05,5.20
2012,10,03,03,06,5.20
2012,10,03,03,07,5.20
2012,10,03,03,08,5.20
2012,10,03,03,09,5.20
2012,10,03,03,10,5.20
2012,10,03,03,11,5.10
2012,10,03,03,12,5.10
2012,10,03,03,13,5.10
2012,10,03,03,14,5.10
2012,10,03,03,15,5.10
2012,10,03,03,16,5.10
2012,10,03,03,17,5.10
2012,10,03,03,18,5.00
2012,10,03,03,19,5.00
2012,10,03,03,20,5.00
2012,10,03,03,21,5.00
2012,10,03,03,22,5.00
2012,10,03,03,23,4.90
2012,10,03,03,24,4.90
2012,10,03,03,25,4.90
2012,10,03,03,26,4.90
2012,10,03,03,27,4.90
2012,10,03,03,28,4.90
2012,10,03,03,29,4.90
2012,10,03,03,30,4.90
2012,10,03,03,31,4.80
2012,10,03,03,32,4.80
2012,10,03,03,33,4.80
2012,10,03,03,34,4.80
2012,10,03,03,35,4.80
2012,10,03,03,36,4.80
2012,10,03,03,37,4.80
2012,10,03,03,38,4.80
2012,10,03,03,39,4.70
2012,10,03,03,40,4.70
2012,10,03,03,41,4.70
2012,10,03,03,42,4.70
2012,10,03,03,43,4.70
2012,10,03,03,44,4.70
2012,10,03,03,45,4.70
2012,10,03,03,46,4.70
2012,10,03,03,47,4.60
2012,10,03,03,48,4.60
2012,10,03,03,49,4.60
2012,10,03,03,50,4.60
2012,10,03,03,51,4.60
2012,10,03,03,52,4.60
2012,10,03,03,53,4.60
2012,10,03,03,54,4.60
2012,10,03,03,55,4.60
2012,10,03,03,56,4.60
2012,10,03,03,57,4.50
2012,10,03,03,58,4.50
2012,10,03,03,59,4.50
2012,10,03,04,00,4.50
2012,10,03,04,01,4.50
2012,10,03,04,02,4.40
2012,10,03,04,03,4.40
2012,10,03,04,04,4.40
2012,10,03,04,05,4.40
2012,10,03,04,06,4.40
2012,10,03,04,07,4.40
2012,10,03,04,08,4.40
2012,10,03,04,09,4.40
2012,10,03,04,10,4.40
2012,10,03,04,11,4.40
2012,10,03,04,12,4.40
2012,10,03,04,13,4.40
2012,10,03,04,14,4.40
2012,10,03,04,15,4.40
2012,10,03,04,16,4.40
2012,10,03,04,17,4.40
2012,10,03,04,18,4.40
2012,10,03,04,19,4.40
2012,10,03,04,20,4.40
2012,10,03,04,21,4.40
2012,10,03,04,22,4.40
2012,10,03,04,23,4.40
2012,10,03,04,24,4.40
2012,10,03,04,25,4.40
2012,10,03,04,26,4.40
2012,10,03,04,27,4.40
2012,10,03,04,28,4.40
2012,10,03,04,29,4.40
2012,10,03,04,30,4.40
2012,10,03,04,31,4.40
2012,10,03,04,32,4.30
2012,10,03,04,33,4.30
2012,10,03,04,34,4.30
2012,10,03,04,35,4.30
2012,10,03,04,36,4.30
2012,10,03,04,37,4.30
2012,10,03,04,38,4.30
2012,10,03,04,39,4.30
2012,10,03,04,40,4.30
2012,10,03,04,41,4.30
2012,10,03,04,42,4.30
2012,10,03,04,43,4.30
2012,10,03,04,44,4.30
2012,10,03,04,45,4.30
2012,10,03,04,46,4.30
2012,10,03,04,47,4.30
2012,10,03,04,48,4.30
2012,10,03,04,49,4.30
2012,10,03,04,50,4.30
2012,10,03,04,51,4.30
2012,10,03,04,52,4.30
2012,10,03,04,53,4.30
2012,10,03,04,54,4.30
2012,10,03,04,55,4.30
2012,10,03,04,56,4.30
2012,10,03,04,57,4.30
2012,10,03,04,58,4.30
2012,10,03,04,59,4.30
2012,10,03,05,00,4.40
2012,10,03,05,01,4.40
2012,10,03,05,02,4.40
2012,10,03,05,03,4.40
2012,10,03,05,04,4.40
2012,10,03,05,05,4.40
2012,10,03,05,06,4.40
2012,10,03,05,07,4.40
2012,10,03,05,08,4.40
2012,10,03,05,09,4.40
2012,10,03,05,10,4.40
2012,10,03,05,11,4.50
2012,10,03,05,12,4.50
2012,10,03,05,13,4.50
2012,10,03,05,14,4.50
2012,10,03,05,15,4.50
2012,10,03,05,16,4.50
2012,10,03,05,17,4.50
2012,10,03,05,18,4.50
2012,10,03,05,19,4.50
2012,10,03,05,20,4.50
2012,10,03,05,21,4.50
2012,10,03,05,22,4.50
2012,10,03,05,23,4.50
2012,10,03,05,24,4.50
2012,10,03,05,25,4.50
2012,10,03,05,26,4.50
2012,10,03,05,27,4.50
2012,10,03,05,28,4.50
2012,10,03,05,29,4.50
2012,10,03,05,30,4.50
2012,10,03,05,31,4.50
2012,10,03,05,32,4.50
2012,10,03,05,33,4.50
2012,10,03,05,34,4.50
2012,10,03,05,35,4.50
2012,10,03,05,36,4.50
2012,10,03,05,37,4.50
2012,10,03,05,38,4.40
2012,10,03,05,39,4.40
2012,10,03,05,40,4.40
2012,10,03,05,41,4.40
2012,10,03,05,42,4.40
2012,10,03,05,43,4.40
2012,10,03,05,44,4.40
2012,10,03,05,45,4.40
2012,10,03,05,46,4.40
2012,10,03,05,47,4.40
2012,10,03,05,48,4.40
2012,10,03,05,49,4.30
2012,10,03,05,50,4.30
2012,10,03,05,51,4.30
2012,10,03,05,52,4.30
2012,10,03,05,53,4.30
2012,10,03,05,54,4.30
2012,10,03,05,55,4.30
2012,10,03,05,56,4.30
2012,10,03,05,57,4.30
2012,10,03,05,58,4.20
2012,10,03,05,59,4.20
2012,10,03,06,00,4.20
2012,10,03,06,01,4.20
2012,10,03,06,02,4.20
2012,10,03,06,03,4.20
2012,10,03,06,04,4.20
2012,10,03,06,05,4.20
2012,10,03,06,06,4.20
2012,10,03,06,07,4.20
2012,10,03,06,08,4.20
2012,10,03,06,09,4.20
2012,10,03,06,10,4.10
2012,10,03,06,11,4.10
2012,10,03,06,12,4.10
2012,10,03,06,13,4.10
2012,10,03,06,14,4.10
2012,10,03,06,15,4.00
2012,10,03,06,16,4.00
2012,10,03,06,17,4.00
2012,10,03,06,18,3.90
2012,10,03,06,19,3.90
2012,10,03,06,20,3.90
2012,10,03,06,21,3.90
2012,10,03,06,22,3.90
2012,10,03,06,23,3.90
2012,10,03,06,24,3.90
2012,10,03,06,25,3.80
2012,10,03,06,26,3.80
2012,10,03,06,27,3.80
2012,10,03,06,28,3.80
2012,10,03,06,29,3.80
2012,10,03,06,30,3.80
2012,10,03,06,31,3.80
2012,10,03,06,32,3.80
2012,10,03,06,33,3.80
2012,10,03,06,34,3.80
2012,10,03,06,35,3.80
2012,10,03,06,36,3.80
2012,10,03,06,37,3.80
2012,10,03,06,38,3.80
2012,10,03,06,39,3.80
2012,10,03,06,40,3.80
2012,10,03,06,41,3.80
2012,10,03,06,42,3.80
2012,10,03,06,43,3.80
2012,10,03,06,44,3.80
2012,10,03,06,45,3.80
2012,10,03,06,46,3.80
2012,10,03,06,47,3.80
2012,10,03,06,48,3.80
2012,10,03,06,49,3.80
2012,10,03,06,50,3.80
2012,10,03,06,51,3.80
2012,10,03,06,52,3.80
2012,10,03,06,53,3.80
2012,10,03,06,54,3.80
2012,10,03,06,55,3.90
2012,10,03,06,56,3.90
2012,10,03,06,57,3.90
2012,10,03,06,58,3.90
2012,10,03,06,59,3.90
2012,10,03,07,00,3.90
2012,10,03,07,01,3.90
2012,10,03,07,02,3.90
2012,10,03,07,03,3.90
2012,10,03,07,04,3.90
2012,10,03,07,05,3.90
2012,10,03,07,06,3.90
2012,10,03,07,07,3.90
2012,10,03,07,08,3.90
2012,10,03,07,09,3.90
2012,10,03,07,10,3.90
2012,10,03,07,11,3.90
2012,10,03,07,12,3.90
2012,10,03,07,13,3.90
2012,10,03,07,14,3.90
2012,10,03,07,15,3.90
2012,10,03,07,16,3.90
2012,10,03,07,17,3.90
2012,10,03,07,18,3.90
2012,10,03,07,19,3.90
2012,10,03,07,20,3.90
2012,10,03,07,21,3.90
2012,10,03,07,22,3.90
2012,10,03,07,23,3.90
2012,10,03,07,24,3.90
2012,10,03,07,25,3.90
2012,10,03,07,26,3.90
2012,10,03,07,27,3.90
2012,10,03,07,28,3.90
2012,10,03,07,29,4.00
2012,10,03,07,30,4.00
2012,10,03,07,31,4.00
2012,10,03,07,32,4.00
2012,10,03,07,33,4.00
2012,10,03,07,34,4.00
2012,10,03,07,35,4.00
2012,10,03,07,36,4.00
2012,10,03,07,37,4.00
2012,10,03,07,38,4.00
2012,10,03,07,39,4.10
2012,10,03,07,40,4.10
2012,10,03,07,41,4.10
2012,10,03,07,42,4.10
2012,10,03,07,43,4.10
2012,10,03,07,44,4.10
2012,10,03,07,45,4.10
2012,10,03,07,46,4.10
2012,10,03,07,47,4.10
2012,10,03,07,48,4.10
2012,10,03,07,49,4.10
2012,10,03,07,50,4.10
2012,10,03,07,51,4.10
2012,10,03,07,52,4.10
2012,10,03,07,53,4.10
2012,10,03,07,54,4.10
2012,10,03,07,55,4.10
2012,10,03,07,56,4.10
2012,10,03,07,57,4.00
2012,10,03,07,58,4.10
2012,10,03,07,59,4.10
2012,10,03,08,00,4.10
2012,10,03,08,01,4.10
2012,10,03,08,02,4.10
2012,10,03,08,03,4.10
2012,10,03,08,04,4.10
2012,10,03,08,05,4.10
2012,10,03,08,06,4.10
2012,10,03,08,07,4.10
2012,10,03,08,08,4.10
2012,10,03,08,09,4.20
2012,10,03,08,10,4.20
2012,10,03,08,11,4.20
2012,10,03,08,12,4.20
2012,10,03,08,13,4.20
2012,10,03,08,14,4.30
2012,10,03,08,15,4.30
2012,10,03,08,16,4.30
2012,10,03,08,17,4.40
2012,10,03,08,18,4.40
2012,10,03,08,19,4.40
2012,10,03,08,20,4.40
2012,10,03,08,21,4.40
2012,10,03,08,22,4.50
2012,10,03,08,23,4.50
2012,10,03,08,24,4.50
2012,10,03,08,25,4.60
2012,10,03,08,26,4.60
2012,10,03,08,27,4.60
2012,10,03,08,28,4.60
2012,10,03,08,29,4.70
2012,10,03,08,30,4.70
2012,10,03,08,31,4.70
2012,10,03,08,32,4.80
2012,10,03,08,33,4.80
2012,10,03,08,34,4.80
2012,10,03,08,35,4.90
2012,10,03,08,36,4.90
2012,10,03,08,37,5.00
2012,10,03,08,38,5.00
2012,10,03,08,39,5.10
2012,10,03,08,40,5.20
2012,10,03,08,41,5.20
2012,10,03,08,42,5.30
2012,10,03,08,43,5.30
2012,10,03,08,44,5.30
2012,10,03,08,45,5.40
2012,10,03,08,46,5.40
2012,10,03,08,47,5.50
2012,10,03,08,48,5.50
2012,10,03,08,49,5.60
2012,10,03,08,50,5.60
2012,10,03,08,51,5.70
2012,10,03,08,52,5.80
2012,10,03,08,53,5.80
2012,10,03,08,54,5.90
2012,10,03,08,55,5.90
2012,10,03,08,56,6.00
2012,10,03,08,57,6.00
2012,10,03,08,58,6.10
2012,10,03,08,59,6.10
2012,10,03,09,00,6.20
2012,10,03,09,01,6.20
2012,10,03,09,02,6.30
2012,10,03,09,03,6.40
2012,10,03,09,04,6.40
2012,10,03,09,05,6.50
2012,10,03,09,06,6.50
2012,10,03,09,07,6.60
2012,10,03,09,08,6.70
2012,10,03,09,09,6.70
2012,10,03,09,10,6.80
2012,10,03,09,11,6.80
2012,10,03,09,12,6.90
2012,10,03,09,13,7.00
2012,10,03,09,14,7.10
2012,10,03,09,15,7.10
2012,10,03,09,16,7.20
2012,10,03,09,17,7.20
2012,10,03,09,18,7.30
2012,10,03,09,19,7.40
2012,10,03,09,20,7.40
2012,10,03,09,21,7.50
2012,10,03,09,22,7.60
2012,10,03,09,23,7.60
2012,10,03,09,24,7.70
2012,10,03,09,25,7.70
2012,10,03,09,26,7.80
2012,10,03,09,27,7.80
2012,10,03,09,28,7.90
2012,10,03,09,29,8.00
2012,10,03,09,30,8.00
2012,10,03,09,31,8.10
2012,10,03,09,32,8.20
2012,10,03,09,33,8.30
2012,10,03,09,34,8.40
2012,10,03,09,35,8.60
2012,10,03,09,36,8.70
2012,10,03,09,37,9.00
2012,10,03,09,38,9.30
2012,10,03,09,39,9.60
2012,10,03,09,40,9.80
2012,10,03,09,41,10.00
2012,10,03,09,42,10.20
2012,10,03,09,43,10.30
2012,10,03,09,44,10.50
2012,10,03,09,45,10.70
2012,10,03,09,46,10.80
2012,10,03,09,47,10.90
2012,10,03,09,48,11.00
2012,10,03,09,49,11.20
2012,10,03,09,50,11.20
2012,10,03,09,51,11.30
2012,10,03,09,52,11.40
2012,10,03,09,53,11.50
2012,10,03,09,54,11.50
2012,10,03,09,55,11.60
2012,10,03,09,56,11.60
2012,10,03,09,57,11.60
2012,10,03,09,58,11.70
2012,10,03,09,59,11.70
2012,10,03,10,00,11.80
2012,10,03,10,01,11.80
2012,10,03,10,02,11.90
2012,10,03,10,03,11.90
2012,10,03,10,04,12.00
2012,10,03,10,05,12.00
2012,10,03,10,06,12.10
2012,10,03,10,07,12.10
2012,10,03,10,08,12.20
2012,10,03,10,09,12.30
2012,10,03,10,10,12.30
2012,10,03,10,11,12.30
2012,10,03,10,12,12.30
2012,10,03,10,13,12.30
2012,10,03,10,14,12.40
2012,10,03,10,15,12.30
2012,10,03,10,16,12.30
2012,10,03,10,17,12.30
2012,10,03,10,18,12.30
2012,10,03,10,19,12.30
2012,10,03,10,20,12.30
2012,10,03,10,21,12.30
2012,10,03,10,22,12.30
2012,10,03,10,23,12.30
2012,10,03,10,24,12.30
2012,10,03,10,25,12.30
2012,10,03,10,26,12.30
2012,10,03,10,27,12.40
2012,10,03,10,28,12.40
2012,10,03,10,29,12.40
2012,10,03,10,30,12.40
2012,10,03,10,31,12.40
2012,10,03,10,32,12.40
2012,10,03,10,33,12.40
2012,10,03,10,34,12.40
2012,10,03,10,35,12.40
2012,10,03,10,36,12.40
2012,10,03,10,37,12.40
2012,10,03,10,38,12.40
2012,10,03,10,39,12.50
2012,10,03,10,40,12.50
2012,10,03,10,41,12.50
2012,10,03,10,42,12.60
2012,10,03,10,43,12.60
2012,10,03,10,44,12.60
2012,10,03,10,45,12.60
2012,10,03,10,46,12.60
2012,10,03,10,47,12.70
2012,10,03,10,48,12.70
2012,10,03,10,49,12.70
2012,10,03,10,50,12.80
2012,10,03,10,51,12.80
2012,10,03,10,52,12.80
2012,10,03,10,53,12.80
2012,10,03,10,54,12.80
2012,10,03,10,55,12.80
2012,10,03,10,56,12.80
2012,10,03,10,57,12.80
2012,10,03,10,58,12.80
2012,10,03,10,59,12.90
2012,10,03,11,00,12.90
2012,10,03,11,01,13.00
2012,10,03,11,02,13.00
2012,10,03,11,03,13.10
2012,10,03,11,04,13.10
2012,10,03,11,05,13.20
2012,10,03,11,06,13.20
2012,10,03,11,07,13.20
2012,10,03,11,08,13.20
2012,10,03,11,09,13.20
2012,10,03,11,10,13.10
2012,10,03,11,11,13.10
2012,10,03,11,12,13.10
2012,10,03,11,13,13.10
2012,10,03,11,14,13.10
2012,10,03,11,15,13.10
2012,10,03,11,16,13.10
2012,10,03,11,17,13.20
2012,10,03,11,18,13.20
2012,10,03,11,19,13.20
2012,10,03,11,20,13.30
2012,10,03,11,21,13.30
2012,10,03,11,22,13.30
2012,10,03,11,23,13.30
2012,10,03,11,24,13.30
2012,10,03,11,25,13.30
2012,10,03,11,26,13.30
2012,10,03,11,27,13.30
2012,10,03,11,28,13.30
2012,10,03,11,29,13.30
2012,10,03,11,30,13.30
2012,10,03,11,31,13.30
2012,10,03,11,32,13.30
2012,10,03,11,33,13.30
2012,10,03,11,34,13.30
2012,10,03,11,35,13.30
2012,10,03,11,36,13.40
2012,10,03,11,37,13.40
2012,10,03,11,38,13.40
2012,10,03,11,39,13.50
2012,10,03,11,40,13.60
2012,10,03,11,41,13.60
2012,10,03,11,42,13.60
2012,10,03,11,43,13.50
2012,10,03,11,44,13.50
2012,10,03,11,45,13.50
2012,10,03,11,46,13.50
2012,10,03,11,47,13.50
2012,10,03,11,48,13.60
2012,10,03,11,49,13.60
2012,10,03,11,50,13.70
2012,10,03,11,51,13.80
2012,10,03,11,52,13.80
2012,10,03,11,53,13.80
2012,10,03,11,54,13.90
2012,10,03,11,55,13.90
2012,10,03,11,56,14.00
2012,10,03,11,57,14.10
2012,10,03,11,58,14.10
2012,10,03,11,59,14.20
2012,10,03,12,00,14.20
2012,10,03,12,01,14.20
2012,10,03,12,02,14.20
2012,10,03,12,03,14.20
2012,10,03,12,04,14.10
2012,10,03,12,05,14.10
2012,10,03,12,06,14.10
2012,10,03,12,07,14.10
2012,10,03,12,08,14.20
2012,10,03,12,09,14.20
2012,10,03,12,10,14.30
2012,10,03,12,11,14.30
2012,10,03,12,12,14.20
2012,10,03,12,13,14.20
2012,10,03,12,14,14.20
2012,10,03,12,15,14.20
2012,10,03,12,16,14.10
2012,10,03,12,17,14.10
2012,10,03,12,18,14.10
2012,10,03,12,19,14.10
2012,10,03,12,20,14.10
2012,10,03,12,21,14.10
2012,10,03,12,22,14.10
2012,10,03,12,23,14.10
2012,10,03,12,24,14.10
2012,10,03,12,25,14.00
2012,10,03,12,26,14.10
2012,10,03,12,27,14.10
2012,10,03,12,28,14.10
2012,10,03,12,29,14.20
2012,10,03,12,30,14.20
2012,10,03,12,31,14.20
2012,10,03,12,32,14.20
2012,10,03,12,33,14.10
2012,10,03,12,34,14.10
2012,10,03,12,35,14.00
2012,10,03,12,36,13.90
2012,10,03,12,37,13.90
2012,10,03,12,38,13.80
2012,10,03,12,39,13.70
2012,10,03,12,40,13.70
2012,10,03,12,41,13.70
2012,10,03,12,42,13.70
2012,10,03,12,43,13.70
2012,10,03,12,44,13.70
2012,10,03,12,45,13.70
2012,10,03,12,46,13.70
2012,10,03,12,47,13.70
2012,10,03,12,48,13.70
2012,10,03,12,49,13.80
2012,10,03,12,50,13.80
2012,10,03,12,51,13.80
2012,10,03,12,52,13.80
2012,10,03,12,53,13.80
2012,10,03,12,54,13.80
2012,10,03,12,55,13.80
2012,10,03,12,56,13.80
2012,10,03,12,57,13.80
2012,10,03,12,58,13.70
2012,10,03,12,59,13.70
2012,10,03,13,00,13.70
2012,10,03,13,01,13.70
2012,10,03,13,02,13.80
2012,10,03,13,03,13.80
2012,10,03,13,04,13.80
2012,10,03,13,05,13.90
2012,10,03,13,06,13.90
2012,10,03,13,07,13.90
2012,10,03,13,08,13.90
2012,10,03,13,09,13.90
2012,10,03,13,10,13.90
2012,10,03,13,11,14.00
2012,10,03,13,12,14.00
2012,10,03,13,13,14.10
2012,10,03,13,14,14.10
2012,10,03,13,15,14.10
2012,10,03,13,16,14.10
2012,10,03,13,17,14.20
2012,10,03,13,18,14.20
2012,10,03,13,19,14.20
2012,10,03,13,20,14.20
2012,10,03,13,21,14.20
2012,10,03,13,22,14.20
2012,10,03,13,23,14.20
2012,10,03,13,24,14.30
2012,10,03,13,25,14.30
2012,10,03,13,26,14.30
2012,10,03,13,27,14.30
2012,10,03,13,28,14.20
2012,10,03,13,29,14.20
2012,10,03,13,30,14.20
2012,10,03,13,31,14.10
2012,10,03,13,32,14.10
2012,10,03,13,33,14.10
2012,10,03,13,34,14.10
2012,10,03,13,35,14.10
2012,10,03,13,36,14.10
2012,10,03,13,37,14.20
2012,10,03,13,38,14.20
2012,10,03,13,39,14.20
2012,10,03,13,40,14.20
2012,10,03,13,41,14.30
2012,10,03,13,42,14.40
2012,10,03,13,43,14.40
2012,10,03,13,44,14.40
2012,10,03,13,45,14.50
2012,10,03,13,46,14.50
2012,10,03,13,47,14.50
2012,10,03,13,48,14.50
2012,10,03,13,49,14.60
2012,10,03,13,50,14.50
2012,10,03,13,51,14.50
2012,10,03,13,52,14.40
2012,10,03,13,53,14.30
2012,10,03,13,54,14.30
2012,10,03,13,55,14.30
2012,10,03,13,56,14.30
2012,10,03,13,57,14.30
2012,10,03,13,58,14.40
2012,10,03,13,59,14.40
2012,10,03,14,00,14.30
2012,10,03,14,01,14.30
2012,10,03,14,02,14.30
2012,10,03,14,03,14.40
2012,10,03,14,04,14.40
2012,10,03,14,05,14.40
2012,10,03,14,06,14.50
2012,10,03,14,07,14.60
2012,10,03,14,08,14.60
2012,10,03,14,09,14.60
2012,10,03,14,10,14.60
2012,10,03,14,11,14.60
2012,10,03,14,12,14.60
2012,10,03,14,13,14.70
2012,10,03,14,14,14.70
2012,10,03,14,15,14.70
2012,10,03,14,16,14.70
2012,10,03,14,17,14.70
2012,10,03,14,18,14.80
2012,10,03,14,19,14.80
2012,10,03,14,20,14.70
2012,10,03,14,21,14.70
2012,10,03,14,22,14.70
2012,10,03,14,23,14.70
2012,10,03,14,24,14.70
2012,10,03,14,25,14.80
2012,10,03,14,26,14.80
2012,10,03,14,27,14.70
2012,10,03,14,28,14.70
2012,10,03,14,29,14.70
2012,10,03,14,30,14.70
2012,10,03,14,31,14.60
2012,10,03,14,32,14.60
2012,10,03,14,33,14.60
2012,10,03,14,34,14.60
2012,10,03,14,35,14.70
2012,10,03,14,36,14.70
2012,10,03,14,37,14.70
2012,10,03,14,38,14.60
2012,10,03,14,39,14.60
2012,10,03,14,40,14.60
2012,10,03,14,41,14.60
2012,10,03,14,42,14.60
2012,10,03,14,43,14.60
2012,10,03,14,44,14.60
2012,10,03,14,45,14.70
2012,10,03,14,46,14.70
2012,10,03,14,47,14.70
2012,10,03,14,48,14.80
2012,10,03,14,49,14.80
2012,10,03,14,50,14.80
2012,10,03,14,51,14.90
2012,10,03,14,52,14.80
2012,10,03,14,53,14.80
2012,10,03,14,54,14.80
2012,10,03,14,55,14.70
2012,10,03,14,56,14.70
2012,10,03,14,57,14.60
2012,10,03,14,58,14.60
2012,10,03,14,59,14.60
2012,10,03,15,00,14.60
2012,10,03,15,01,14.70
2012,10,03,15,02,14.70
2012,10,03,15,03,14.60
2012,10,03,15,04,14.60
2012,10,03,15,05,14.60
2012,10,03,15,06,14.60
2012,10,03,15,07,14.50
2012,10,03,15,08,14.50
2012,10,03,15,09,14.50
2012,10,03,15,10,14.50
2012,10,03,15,11,14.50
2012,10,03,15,12,14.60
2012,10,03,15,13,14.60
2012,10,03,15,14,14.60
2012,10,03,15,15,14.60
2012,10,03,15,16,14.60
2012,10,03,15,17,14.60
2012,10,03,15,18,14.60
2012,10,03,15,19,14.70
2012,10,03,15,20,14.70
2012,10,03,15,21,14.70
2012,10,03,15,22,14.70
2012,10,03,15,23,14.70
2012,10,03,15,24,14.70
2012,10,03,15,25,14.60
2012,10,03,15,26,14.60
2012,10,03,15,27,14.60
2012,10,03,15,28,14.60
2012,10,03,15,29,14.60
2012,10,03,15,30,14.60
2012,10,03,15,31,14.60
2012,10,03,15,32,14.70
2012,10,03,15,33,14.70
2012,10,03,15,34,14.80
2012,10,03,15,35,14.80
2012,10,03,15,36,14.80
2012,10,03,15,37,14.80
2012,10,03,15,38,14.80
2012,10,03,15,39,14.90
2012,10,03,15,40,14.90
2012,10,03,15,41,14.90
2012,10,03,15,42,14.90
2012,10,03,15,43,15.00
2012,10,03,15,44,15.00
2012,10,03,15,45,15.10
2012,10,03,15,46,15.10
2012,10,03,15,47,15.20
2012,10,03,15,48,15.20
2012,10,03,15,49,15.20
2012,10,03,15,50,15.20
2012,10,03,15,51,15.20
2012,10,03,15,52,15.20
2012,10,03,15,53,15.20
2012,10,03,15,54,15.20
2012,10,03,15,55,15.20
2012,10,03,15,56,15.20
2012,10,03,15,57,15.10
2012,10,03,15,58,15.10
2012,10,03,15,59,15.00
2012,10,03,16,00,14.90
2012,10,03,16,01,14.90
2012,10,03,16,02,14.90
2012,10,03,16,03,14.90
2012,10,03,16,04,14.90
2012,10,03,16,05,14.90
2012,10,03,16,06,14.90
2012,10,03,16,07,14.90
2012,10,03,16,08,15.00
2012,10,03,16,09,15.00
2012,10,03,16,10,15.10
2012,10,03,16,11,15.10
2012,10,03,16,12,15.20
2012,10,03,16,13,15.20
2012,10,03,16,14,15.20
2012,10,03,16,15,15.30
2012,10,03,16,16,15.30
2012,10,03,16,17,15.30
2012,10,03,16,18,15.20
2012,10,03,16,19,15.20
2012,10,03,16,20,15.20
2012,10,03,16,21,15.30
2012,10,03,16,22,15.30
2012,10,03,16,23,15.40
2012,10,03,16,24,15.50
2012,10,03,16,25,15.50
2012,10,03,16,26,15.60
2012,10,03,16,27,15.70
2012,10,03,16,28,15.70
2012,10,03,16,29,15.70
2012,10,03,16,30,15.70
2012,10,03,16,31,15.70
2012,10,03,16,32,15.80
2012,10,03,16,33,15.80
2012,10,03,16,34,15.80
2012,10,03,16,35,15.80
2012,10,03,16,36,15.90
2012,10,03,16,37,15.90
2012,10,03,16,38,16.00
2012,10,03,16,39,16.00
2012,10,03,16,40,16.10
2012,10,03,16,41,16.10
2012,10,03,16,42,16.20
2012,10,03,16,43,16.10
2012,10,03,16,44,16.10
2012,10,03,16,45,16.10
2012,10,03,16,46,16.10
2012,10,03,16,47,16.10
2012,10,03,16,48,16.10
2012,10,03,16,49,16.20
2012,10,03,16,50,16.20
2012,10,03,16,51,16.20
2012,10,03,16,52,16.30
2012,10,03,16,53,16.30
2012,10,03,16,54,16.30
2012,10,03,16,55,16.30
2012,10,03,16,56,16.30
2012,10,03,16,57,16.30
2012,10,03,16,58,16.30
2012,10,03,16,59,16.30
2012,10,03,17,00,16.30
2012,10,03,17,01,16.40
2012,10,03,17,02,16.30
2012,10,03,17,03,16.30
2012,10,03,17,04,16.20
2012,10,03,17,05,16.20
2012,10,03,17,06,16.20
2012,10,03,17,07,16.20
2012,10,03,17,08,16.10
2012,10,03,17,09,16.10
2012,10,03,17,10,16.00
2012,10,03,17,11,15.90
2012,10,03,17,12,15.90
2012,10,03,17,13,15.80
2012,10,03,17,14,15.80
2012,10,03,17,15,15.70
2012,10,03,17,16,15.70
2012,10,03,17,17,15.60
2012,10,03,17,18,15.60
2012,10,03,17,19,15.50
2012,10,03,17,20,15.50
2012,10,03,17,21,15.40
2012,10,03,17,22,15.30
2012,10,03,17,23,15.30
2012,10,03,17,24,15.20
2012,10,03,17,25,15.10
2012,10,03,17,26,15.10
2012,10,03,17,27,15.10
2012,10,03,17,28,15.00
2012,10,03,17,29,15.00
2012,10,03,17,30,14.90
2012,10,03,17,31,14.90
2012,10,03,17,32,14.80
2012,10,03,17,33,14.80
2012,10,03,17,34,14.80
2012,10,03,17,35,14.80
2012,10,03,17,36,14.80
2012,10,03,17,37,14.80
2012,10,03,17,38,14.70
2012,10,03,17,39,14.70
2012,10,03,17,40,14.70
2012,10,03,17,41,14.70
2012,10,03,17,42,14.60
2012,10,03,17,43,14.60
2012,10,03,17,44,14.60